This is the latest recevied weather packets stored in our database for station/object N8QF. If no packets are shown the sender has not sent any weather packets the latest 10 day(s).
| Time | Temp. | Humidity | Pressure | Rain* | Wind** | Luminosity | Snow |
|---|---|---|---|---|---|---|---|
| 1778162506 | 11.11° C | 50% | 1014.7 hPa | 0 mm | - | - | - |
| 1778162205 | 10.56° C | 50% | 1014.7 hPa | 0 mm | - | - | - |
| 1778161905 | 10.56° C | 50% | 1014.7 hPa | 0 mm | - | - | - |
| 1778161605 | 10.56° C | 46% | 1014.7 hPa | 0 mm | - | - | - |
| 1778161305 | 11.11° C | 49% | 1014.6 hPa | 0 mm | - | - | - |
| 1778160697 | 10.56° C | 53% | 1014.7 hPa | 0 mm | - | - | - |
| 1778160397 | 10.56° C | 54% | 1014.7 hPa | 0 mm | - | - | - |
| 1778160096 | 10.56° C | 54% | 1014.7 hPa | 0 mm | - | - | - |
| 1778159796 | 10° C | 56% | 1014.7 hPa | 0 mm | - | - | - |
| 1778159496 | 10° C | 58% | 1014.7 hPa | 0 mm | - | - | - |
| 1778159196 | 10° C | 60% | 1014.7 hPa | 0 mm | - | - | - |
| 1778158896 | 10° C | 58% | 1014.7 hPa | 0 mm | - | - | - |
| 1778158593 | 9.44° C | 62% | 1014.7 hPa | 0 mm | - | - | - |
| 1778158293 | 9.44° C | 67% | 1014.7 hPa | 0 mm | - | - | - |
| 1778157991 | 8.89° C | 68% | 1014.7 hPa | 0 mm | - | - | - |
| 1778157693 | 8.89° C | 69% | 1014.7 hPa | 0 mm | - | - | - |
| 1778157088 | 8.33° C | 76% | 1014.8 hPa | 0 mm | - | - | - |
| 1778156788 | 8.33° C | 79% | 1014.8 hPa | 0 mm | - | - | - |
| 1778156488 | 7.78° C | 81% | 1014.8 hPa | 0 mm | - | - | - |
| 1778156185 | 7.22° C | 84% | 1014.7 hPa | 0 mm | - | - | - |
| 1778155882 | 7.22° C | 86% | 1014.7 hPa | 0 mm | - | - | - |
| 1778155582 | 6.67° C | 88% | 1014.6 hPa | 0 mm | - | - | - |
| 1778155281 | 6.11° C | 90% | 1014.7 hPa | 0 mm | - | - | - |
| 1778154981 | 6.11° C | 92% | 1014.7 hPa | 0 mm | - | - | - |
| 1778154677 | 5.56° C | 93% | 1014.7 hPa | 0 mm | - | - | - |
* Rain since midnight (hover to see other rain measurements)
** Current wind speed in m/s (hover to see current wind gust speed)